| time (UTC) | temp C | wind direction | speed KPH | gust KPH | rain 1hr cm | rain 24hr cm | rain mn cm | humidity % | barometer mb |
| 20260510190016 | 19 | 49 | 9.7 | 29.0 | 0.00 | 0.00 | 0.00 | 41 | 1019.5 |
| 20260510184513 | 19 | 331 | 3.2 | 22.5 | 0.00 | 0.00 | 0.00 | 45 | 1019.4 |
| 20260510183012 | 20 | 76 | 4.8 | 22.5 | 0.00 | 0.00 | 0.00 | 40 | 1019.5 |
| 20260510181511 | 20 | 57 | 8.0 | 25.7 | 0.00 | 0.00 | 0.00 | 45 | 1019.3 |
| 20260510180010 | 20 | 311 | 8.0 | 22.5 | 0.00 | 0.00 | 0.00 | 42 | 1019.4 |
| 20260510174509 | 20 | 21 | 6.4 | 20.9 | 0.00 | 0.00 | 0.00 | 42 | 1019.4 |
| 20260510173008 | 20 | 342 | 6.4 | 17.7 | 0.00 | 0.00 | 0.00 | 45 | 1019.3 |
| 20260510171507 | 20 | 84 | 6.4 | 19.3 | 0.00 | 0.00 | 0.00 | 45 | 1019.1 |
| 20260510170006 | 20 | 44 | 8.0 | 17.7 | 0.00 | 0.00 | 0.00 | 43 | 1019.1 |
| 20260510164503 | 19 | 28 | 8.0 | 20.9 | 0.00 | 0.00 | 0.00 | 42 | 1018.9 |
| 20260510163059 | 19 | 327 | 8.0 | 24.1 | 0.00 | 0.00 | 0.00 | 46 | 1018.5 |
| 20260510161605 | 18 | 9 | 9.7 | 20.9 | 0.00 | 0.00 | 0.00 | 47 | 1018.5 |
| 20260510160055 | 18 | 53 | 12.9 | 24.1 | 0.00 | 0.00 | 0.00 | 47 | 1018.4 |
| 20260510154557 | 18 | 36 | 11.3 | 24.1 | 0.00 | 0.00 | 0.00 | 46 | 1018.2 |
| 20260510153054 | 17 | 43 | 11.3 | 24.1 | 0.00 | 0.00 | 0.00 | 48 | 1018.1 |
| 20260510151550 | 17 | 63 | 12.9 | 25.7 | 0.00 | 0.00 | 0.00 | 49 | 1017.9 |
| 20260510150118 | 16 | 58 | 6.4 | 25.7 | 0.00 | 0.00 | 0.00 | 55 | 1017.9 |
| 20260510144547 | 15 | 11 | 4.8 | 17.7 | 0.00 | 0.00 | 0.00 | 57 | 1018.4 |
| 20260510143046 | 15 | 39 | 4.8 | 14.5 | 0.00 | 0.00 | 0.00 | 60 | 1018.5 |
| 20260510141545 | 15 | 49 | 6.4 | 14.5 | 0.00 | 0.00 | 0.00 | 63 | 1018.5 |
| 20260510140043 | 15 | 43 | 4.8 | 16.1 | 0.00 | 0.00 | 0.00 | 63 | 1018.3 |
| 20260510134542 | 15 | 34 | 6.4 | 25.7 | 0.00 | 0.00 | 0.00 | 62 | 1018.0 |
| 20260510133038 | 15 | 45 | 6.4 | 20.9 | 0.00 | 0.00 | 0.00 | 64 | 1017.7 |
| 20260510131534 | 15 | 46 | 8.0 | 16.1 | 0.00 | 0.00 | 0.00 | 65 | 1016.9 |
| 20260510130032 | 14 | 100 | 6.4 | 24.1 | 0.00 | 0.00 | 0.00 | 68 | 1016.5 |
| 20260510124530 | 14 | 57 | 6.4 | 24.1 | 0.00 | 0.00 | 0.00 | 70 | 1016.5 |
| 20260510123026 | 13 | 63 | 8.0 | 22.5 | 0.00 | 0.00 | 0.00 | 73 | 1016.0 |
| 20260510121523 | 13 | 40 | 8.0 | 19.3 | 0.00 | 0.00 | 0.00 | 76 | 1015.5 |
| 20260510120026 | 13 | 48 | 6.4 | 16.1 | 0.00 | 0.00 | 0.00 | 77 | 1015.3 |
| 20260510114526 | 13 | 38 | 4.8 | 16.1 | 0.00 | 0.00 | 0.00 | 79 | 1015.1 |
| 20260510113016 | 13 | 47 | 4.8 | 9.7 | 0.00 | 0.00 | 0.00 | 79 | 1015.0 |
| 20260510111514 | 13 | 50 | 4.8 | 11.3 | 0.00 | 0.00 | 0.00 | 79 | 1015.0 |
| 20260510110013 | 13 | 57 | 3.2 | 9.7 | 0.00 | 0.00 | 0.00 | 78 | 1014.7 |
| 20260510104511 | 13 | 58 | 3.2 | 9.7 | 0.00 | 0.00 | 0.00 | 78 | 1014.6 |
| 20260510103009 | 13 | 38 | 3.2 | 14.5 | 0.00 | 0.00 | 0.00 | 78 | 1014.4 |
| 20260510101505 | 13 | 40 | 3.2 | 12.9 | 0.00 | 0.00 | 0.00 | 78 | 1014.1 |
| 20260510100003 | 14 | 42 | 4.8 | 9.7 | 0.00 | 0.00 | 0.00 | 77 | 1013.7 |
| 20260510094505 | 14 | 27 | 3.2 | 9.7 | 0.00 | 0.00 | 0.00 | 77 | 1013.6 |
| 20260510093121 | 15 | 16 | 4.8 | 12.9 | 0.00 | 0.00 | 0.00 | 76 | 1013.6 |
| 20260510091558 | 15 | 53 | 3.2 | 8.0 | 0.00 | 0.00 | 0.00 | 75 | 1013.2 |
| 20260510090058 | 15 | 59 | 1.6 | 8.0 | 0.00 | 0.00 | 0.00 | 75 | 1013.2 |
| 20260510084554 | 15 | 61 | 1.6 | 4.8 | 0.00 | 0.00 | 0.00 | 75 | 1012.8 |
| 20260510083104 | 15 | 61 | 1.6 | 8.0 | 0.00 | 0.00 | 0.00 | 75 | 1012.4 |
| 20260510081551 | 16 | 64 | 3.2 | 8.0 | 0.00 | 0.00 | 0.00 | 74 | 1012.4 |
| 20260510080057 | 15 | 77 | 3.2 | 8.0 | 0.00 | 0.00 | 0.00 | 75 | 1012.5 |
| 20260510074550 | 15 | 16 | 1.6 | 3.2 | 0.00 | 0.00 | 0.00 | 81 | 1012.4 |
| 20260510073054 | 15 | 16 | 1.6 | 3.2 | 0.00 | 0.00 | 0.00 | 81 | 1012.3 |
| 20260510071546 | 15 | 16 | 1.6 | 3.2 | 0.00 | 0.00 | 0.00 | 79 | 1012.0 |
| 20260510070043 | 16 | 16 | 0.0 | 1.6 | 0.00 | 0.00 | 0.00 | 79 | 1012.1 |
| 20260510064541 | 16 | 16 | 1.6 | 3.2 | 0.00 | 0.03 | 0.00 | 80 | 1012.1 |
| 20260510063040 | 16 | 16 | 0.0 | 1.6 | 0.00 | 0.03 | 0.00 | 78 | 1011.9 |
| 20260510061538 | 16 | 16 | 0.0 | 3.2 | 0.00 | 0.03 | 0.00 | 78 | 1011.9 |
| 20260510060043 | 16 | 342 | 1.6 | 4.8 | 0.00 | 0.03 | 0.00 | 79 | 1011.7 |
| 20260510054539 | 16 | 342 | 0.0 | 1.6 | 0.00 | 0.03 | 0.00 | 77 | 1011.9 |
| 20260510053032 | 17 | 342 | 0.0 | 0.0 | 0.00 | 0.03 | 0.00 | 75 | 1011.8 |
| 20260510051533 | 17 | 342 | 0.0 | 3.2 | 0.00 | 0.03 | 0.00 | 72 | 1011.8 |
| 20260510050026 | 18 | 342 | 0.0 | 4.8 | 0.00 | 0.03 | 0.00 | 72 | 1012.0 |
| 20260510044525 | 17 | 342 | 1.6 | 9.7 | 0.00 | 0.03 | 0.03 | 69 | 1012.1 |
| 20260510043027 | 17 | 343 | 0.0 | 6.4 | 0.00 | 0.03 | 0.03 | 72 | 1012.0 |
| 20260510041523 | 17 | 333 | 4.8 | 16.1 | 0.00 | 0.03 | 0.03 | 73 | 1011.9 |
| 20260510040020 | 17 | 167 | 0.0 | 1.6 | 0.00 | 0.03 | 0.03 | 72 | 1011.3 |
| 20260510034522 | 17 | 167 | 0.0 | 3.2 | 0.00 | 0.03 | 0.03 | 72 | 1011.2 |
| 20260510033015 | 18 | 167 | 1.6 | 4.8 | 0.00 | 0.03 | 0.03 | 69 | 1010.8 |
| 20260510031514 | 18 | 167 | 4.8 | 9.7 | 0.00 | 0.03 | 0.03 | 70 | 1010.5 |
| 20260510030018 | 18 | 167 | 4.8 | 8.0 | 0.00 | 0.03 | 0.03 | 71 | 1010.4 |
| 20260510024511 | 18 | 169 | 1.6 | 8.0 | 0.00 | 0.03 | 0.03 | 69 | 1010.3 |
| 20260510023009 | 18 | 168 | 3.2 | 8.0 | 0.00 | 0.03 | 0.03 | 69 | 1010.0 |
| 20260510021509 | 19 | 168 | 1.6 | 4.8 | 0.00 | 0.03 | 0.03 | 68 | 1009.5 |
| 20260510020008 | 20 | 168 | 3.2 | 8.0 | 0.00 | 0.03 | 0.03 | 68 | 1009.2 |
| 20260510014510 | 20 | 167 | 3.2 | 6.4 | 0.00 | 0.03 | 0.03 | 65 | 1008.6 |
| 20260510013008 | 21 | 167 | 1.6 | 8.0 | 0.00 | 0.03 | 0.03 | 62 | 1008.5 |
| 20260510011508 | 22 | 167 | 6.4 | 9.7 | 0.00 | 0.03 | 0.03 | 60 | 1008.2 |
| 20260510010006 | 22 | 186 | 6.4 | 9.7 | 0.00 | 0.03 | 0.03 | 57 | 1008.1 |
| 20260510004505 | 23 | 180 | 4.8 | 11.3 | 0.00 | 0.03 | 0.03 | 55 | 1007.9 |
| 20260510003014 | 24 | 183 | 4.8 | 12.9 | 0.00 | 0.03 | 0.03 | 53 | 1007.9 |
| 20260510001503 | 25 | 206 | 8.0 | 16.1 | 0.00 | 0.03 | 0.03 | 50 | 1007.8 |
| 20260510000004 | 25 | 190 | 9.7 | 19.3 | 0.00 | 0.03 | 0.03 | 49 | 1007.8 |
| 20260509234503 | 25 | 184 | 9.7 | 16.1 | 0.00 | 0.03 | 0.03 | 48 | 1007.8 |
| 20260509233001 | 25 | 159 | 6.4 | 17.7 | 0.00 | 0.03 | 0.03 | 51 | 1007.9 |
| 20260509231503 | 26 | 186 | 4.8 | 16.1 | 0.00 | 0.03 | 0.03 | 48 | 1007.9 |
| 20260509224603 | 25 | 202 | 4.8 | 14.5 | 0.00 | 0.03 | 0.03 | 46 | 1007.8 |
| 20260509223059 | 26 | 171 | 6.4 | 16.1 | 0.00 | 0.03 | 0.03 | 42 | 1007.8 |
| 20260509221602 | 27 | 182 | 8.0 | 14.5 | 0.00 | 0.03 | 0.03 | 36 | 1007.9 |
| 20260509220106 | 28 | 183 | 6.4 | 16.1 | 0.00 | 0.03 | 0.03 | 38 | 1007.8 |
| 20260509214601 | 28 | 181 | 6.4 | 16.1 | 0.00 | 0.03 | 0.03 | 34 | 1007.9 |
| 20260509213119 | 28 | 184 | 4.8 | 16.1 | 0.00 | 0.03 | 0.03 | 34 | 1007.9 |
| 20260509211554 | 27 | 162 | 6.4 | 14.5 | 0.00 | 0.03 | 0.03 | 40 | 1008.0 |
| 20260509204548 | 27 | 184 | 3.2 | 16.1 | 0.00 | 0.03 | 0.03 | 35 | 1008.4 |
| 20260509203146 | 27 | 219 | 3.2 | 11.3 | 0.00 | 0.03 | 0.03 | 40 | 1008.5 |
| 20260509201544 | 28 | 266 | 1.6 | 12.9 | 0.00 | 0.03 | 0.03 | 40 | 1008.7 |
| 20260509200043 | 27 | 201 | 6.4 | 17.7 | 0.00 | 0.03 | 0.03 | 42 | 1008.9 |
| 20260509194541 | 27 | 272 | 6.4 | 17.7 | 0.00 | 0.03 | 0.03 | 41 | 1009.0 |
| 20260509193043 | 27 | 200 | 6.4 | 22.5 | 0.00 | 0.03 | 0.03 | 39 | 1009.1 |
| 20260509191541 | 26 | 257 | 6.4 | 19.3 | 0.00 | 0.03 | 0.03 | 45 | 1009.1 |